Location: Bílinka
(49.3579°N, 14.3767°E)
Time: 01:44:49
(UTC+00:00)

COBE Rocket - Pass Details

Date: 28 January 2023
Orbit: 680 x 779 km, 97.1° (Epoch: 31 March)

Event Time Altitude Azimuth Distance (km) Brightness Sun altitude
Rises 16:23:22 0° 163° (SSE) 3,123 7.2 -5.6°
Reaches altitude 10° 16:25:39 10° 163° (SSE) 2,191 6.4 -5.9°
Maximum altitude 16:30:27 84° 76° (ENE) 713 3.8 -6.6°
Drops below altitude 10° 16:35:11 10° 349° (N) 2,156 6.3 -7.4°
Sets 16:37:25 0° 349° (NNW) 3,068 7.0 -7.7°
